Tracking 19176 objects as of 25-May-2018
HD Live streaming from Space Station
objects crossing your sky now

IRIDIUM 55

Track IRIDIUM 55 now!
10-day predictions
IRIDIUM 55 is classified as:


NORAD ID: 25272
Int'l Code: 1998-019A
Perigee: 768.6 km
Apogee: 771.9 km
Inclination: 86.4 °
Period: 100.1 minutes
Semi major axis: 7141 km
RCS: 4.111 m2 (large)
Launch date: March 30, 1998
Source: United States (US)
Launch site: AIR FORCE WESTERN TEST RANGE (AFWTR)
aabbcc
Your satellite tracking list
Your tracking list is empty




NASA's NSSDC Master Catalog

Two Line Element Set (TLE):
1 25272U 98019A   18145.49993130 -.00000022  00000-0 -13685-4 0  9995
2 25272  86.4205 143.9648 0002285  75.4800 284.6651 14.38606424 55247
Source of the keplerian elements: AFSPC